Date String (YYYY-MM-DD hh:mm:ss) UTC,Instrument flags,Ambient pressure (hPa),Sample flow (lpm),Bypass flow (lpm),Sample temperature (°C),Ambient temperature (°C),ASC tube jacket temperature (°C),LED temperature (°C),Box temperature (°C),Sample RH (%),Span deviation,Mass concentration (μg/m³),Mass concentration (μg/m³),Mass concentration (μg/m³)
DateTimeUTC,F1_M11,P_M11,Q1_M11,Q2_M11,T1_M11,T2_M11,T3_M11,T4_M11,T5_M11,U1_M11,ZSPAN_M11,X2_M11,X0_M11,X1_M11
2023-01-27 20:00:00,,0816.3,4.98,0.00,22.6,21.3,00.0,31.4,24.4,09.6,0000.0,0000.96,0003.24,0000.53
2023-01-27 20:01:00,,0816.4,5.00,0.00,22.6,21.3,00.0,31.4,24.4,11.3,0000.0,0001.02,0003.83,0000.56
2023-01-27 20:02:00,,0816.4,4.99,0.00,22.6,21.4,00.0,31.4,24.4,11.7,0000.0,0001.18,0004.88,0000.68
2023-01-27 20:03:00,,0816.4,5.01,0.00,22.6,21.4,00.0,31.4,24.5,11.6,0000.0,0001.33,0005.32,0000.79
2023-01-27 20:04:00,,0816.3,5.01,0.00,22.6,21.4,00.0,31.4,24.5,11.7,0000.0,0001.48,0005.55,0000.94
2023-01-27 20:05:00,,0816.3,5.02,0.00,22.6,21.4,00.0,31.4,24.5,11.8,0000.0,0001.72,0005.90,0001.11
2023-01-27 20:06:00,,0816.3,5.00,0.00,22.6,21.4,00.0,31.4,24.5,12.3,0000.0,0001.97,0006.06,0001.33
2023-01-27 20:07:00,,0816.3,5.01,0.00,22.6,21.4,00.0,31.4,24.5,12.4,0000.0,0002.33,0006.34,0001.63
2023-01-27 20:08:00,,0816.3,5.03,0.00,22.6,21.4,00.0,31.4,24.5,12.5,0000.0,0002.65,0006.87,0001.86
2023-01-27 20:09:00,,0816.3,4.99,0.00,22.6,21.3,00.0,31.4,24.5,12.0,0000.0,0002.93,0007.95,0002.06
2023-01-27 20:10:00,,0816.3,5.01,0.00,22.6,21.4,00.0,31.4,24.5,11.6,0000.0,0003.12,0008.29,0002.22
2023-01-27 20:11:00,,0816.3,5.00,0.00,22.6,21.4,00.0,31.4,24.5,11.8,0000.0,0003.24,0008.41,0002.38
2023-01-27 20:12:00,,0816.1,5.00,0.00,22.6,21.4,00.0,31.4,24.5,11.8,0000.0,0003.32,0008.36,0002.49
2023-01-27 20:13:00,,0816.1,5.00,0.00,22.6,21.4,00.0,31.4,24.5,11.7,0000.0,0003.30,0007.74,0002.50
2023-01-27 20:14:00,,0816.1,5.01,0.00,22.6,21.4,00.0,31.5,24.5,11.3,0000.0,0003.28,0007.63,0002.49
2023-01-27 20:15:00,,0816.0,5.00,0.00,22.7,21.4,00.0,31.5,24.5,11.0,0000.0,0003.24,0007.46,0002.44
2023-01-27 20:16:00,,0816.0,4.99,0.00,22.7,21.4,00.0,31.5,24.5,11.0,0000.0,0003.16,0007.26,0002.35
2023-01-27 20:17:00,,0815.9,4.99,0.00,22.7,21.4,00.0,31.5,24.5,10.8,0000.0,0003.01,0006.95,0002.20
2023-01-27 20:18:00,,0815.8,5.00,0.00,22.7,21.4,00.0,31.5,24.5,10.7,0000.0,0002.73,0006.56,0001.98
2023-01-27 20:19:00,,0815.7,5.00,0.00,22.7,21.4,00.0,31.5,24.5,10.8,0000.0,0002.37,0005.97,0001.76
2023-01-27 20:20:00,,0815.9,5.02,0.00,22.7,21.4,00.0,31.5,24.5,11.0,0000.0,0002.15,0004.80,0001.59
2023-01-27 20:21:00,,0815.7,4.99,0.00,22.7,21.4,00.0,31.5,24.5,11.0,0000.0,0001.91,0003.48,0001.45
2023-01-27 20:22:00,,0816.0,4.98,0.00,22.6,21.3,00.0,31.5,24.4,09.4,0000.0,0001.67,0003.02,0001.27
2023-01-27 20:23:00,,0815.6,4.98,0.00,22.6,21.2,00.0,31.5,24.3,09.4,0000.0,0001.43,0002.61,0001.10
2023-01-27 20:24:00,,0815.7,5.00,0.00,22.6,21.2,00.0,31.5,24.3,10.2,0000.0,0001.19,0002.40,0000.91
2023-01-27 20:25:00,,0815.8,4.99,0.00,22.6,21.2,00.0,31.5,24.3,10.9,0000.0,0001.02,0002.50,0000.77
2023-01-27 20:26:00,,0815.7,5.00,0.00,22.6,21.1,00.0,31.5,24.3,10.4,0000.0,0000.94,0002.41,0000.67
2023-01-27 20:27:00,,0815.7,4.99,0.00,22.6,21.1,00.0,31.5,24.3,10.1,0000.0,0000.87,0002.32,0000.59
2023-01-27 20:28:00,,0815.7,4.99,0.00,22.6,21.1,00.0,31.4,24.2,10.0,0000.0,0000.73,0002.04,0000.51
2023-01-27 20:29:00,,0815.6,5.02,0.00,22.5,21.0,00.0,31.4,24.2,10.0,0000.0,0000.64,0001.90,0000.45
2023-01-27 20:30:00,,0815.4,4.99,0.00,22.5,21.1,00.0,31.4,24.2,10.0,0000.0,0000.58,0001.85,0000.38
2023-01-27 20:31:00,,0815.4,4.97,0.00,22.5,21.0,00.0,31.4,24.2,09.5,0000.0,0000.57,0001.86,0000.33
2023-01-27 20:32:00,,0815.6,5.01,0.00,22.5,21.0,00.0,31.4,24.1,09.7,0000.0,0000.52,0001.65,0000.29
2023-01-27 20:33:00,,0815.8,5.00,0.00,22.5,21.0,00.0,31.4,24.1,09.4,0000.0,0000.50,0001.66,0000.28
2023-01-27 20:34:00,,0816.0,5.02,0.00,22.5,21.0,00.0,31.4,24.1,09.5,0000.0,0000.50,0001.64,0000.27
2023-01-27 20:35:00,,0815.8,4.99,0.00,22.5,21.0,00.0,31.4,24.1,09.6,0000.0,0000.49,0001.61,0000.27
2023-01-27 20:36:00,,0815.6,5.03,0.00,22.5,21.0,00.0,31.4,24.1,10.4,0000.0,0000.49,0001.04,0000.27
2023-01-27 20:37:00,,0815.9,4.99,0.00,22.5,21.0,00.0,31.4,24.1,10.2,0000.0,0000.49,0001.07,0000.26
2023-01-27 20:38:00,,0816.1,4.99,0.00,22.4,20.9,00.0,31.4,24.1,10.3,0000.0,0000.44,0001.02,0000.26
2023-01-27 20:39:00,,0816.1,5.00,0.00,22.4,20.9,00.0,31.4,24.1,09.6,0000.0,0000.46,0001.04,0000.25
2023-01-27 20:40:00,,0815.9,5.00,0.00,22.4,20.9,00.0,31.3,24.1,10.0,0000.0,0000.48,0001.28,0000.25
2023-01-27 20:41:00,,0815.9,4.97,0.00,22.4,20.9,00.0,31.3,24.1,11.3,0000.0,0000.61,0001.66,0000.35
2023-01-27 20:42:00,,0815.9,5.01,0.00,22.4,20.8,00.0,31.3,24.0,11.3,0000.0,0000.72,0002.42,0000.50
2023-01-27 20:43:00,,0816.1,5.01,0.00,22.4,20.8,00.0,31.3,24.0,11.2,0000.0,0000.91,0003.27,0000.66
2023-01-27 20:44:00,,0816.1,4.98,0.00,22.4,20.8,00.0,31.3,24.0,11.0,0000.0,0001.09,0003.61,0000.78
2023-01-27 20:45:00,,0816.0,5.03,0.00,22.4,20.8,00.0,31.3,24.1,11.6,0000.0,0001.27,0004.10,0000.91
2023-01-27 20:46:00,,0815.6,4.95,0.00,22.4,20.8,00.0,31.3,24.1,11.6,0000.0,0001.46,0004.40,0001.04
2023-01-27 20:47:00,,0815.3,5.03,0.00,22.3,20.8,00.0,31.3,24.1,09.8,0000.0,0001.52,0004.54,0001.08
2023-01-27 20:48:00,,0815.3,4.97,0.00,22.3,20.8,00.0,31.3,24.1,09.3,0000.0,0001.50,0004.54,0001.08
2023-01-27 20:49:00,,0815.2,5.03,0.00,22.3,20.8,00.0,31.3,24.0,09.8,0000.0,0001.51,0004.50,0001.09
2023-01-27 20:50:00,,0815.5,4.97,0.00,22.3,20.8,00.0,31.3,24.0,10.1,0000.0,0001.50,0004.50,0001.09
2023-01-27 20:51:00,,0815.2,5.00,0.00,22.3,20.8,00.0,31.3,23.9,09.5,0000.0,0001.48,0004.37,0001.09
2023-01-27 20:52:00,,0815.2,5.01,0.00,22.3,20.7,00.0,31.2,23.9,09.6,0000.0,0001.38,0004.09,0000.99
2023-01-27 20:53:00,,0815.3,5.01,0.00,22.3,20.7,00.0,31.2,24.0,10.0,0000.0,0001.21,0003.11,0000.83
2023-01-27 20:54:00,,0815.2,5.03,0.00,22.3,20.7,00.0,31.2,23.9,09.6,0000.0,0001.02,0002.27,0000.67
2023-01-27 20:55:00,,0815.2,5.01,0.00,22.2,20.7,00.0,31.2,23.8,09.6,0000.0,0000.83,0001.87,0000.54
2023-01-27 20:56:00,,0815.3,5.00,0.00,22.2,20.7,00.0,31.2,23.8,09.2,0000.0,0000.64,0001.35,0000.40
2023-01-27 20:57:00,,0815.4,4.99,0.00,22.2,20.7,00.0,31.2,23.8,09.1,0000.0,0000.47,0001.14,0000.26
2023-01-27 20:58:00,,0815.4,5.01,0.00,22.2,20.7,00.0,31.2,23.8,10.4,0000.0,0000.46,0001.17,0000.24
2023-01-27 20:59:00,,0815.6,4.98,0.00,22.2,20.6,00.0,31.2,23.8,12.2,0000.0,0000.67,0001.65,0000.37
